Location: Lake Runnemede Observatory
(43.4843°N, 72.3851°W)
Time: 19:33:45
(UTC-05:00)

Amateur Radio Satellites - All Passes

Search period start: 02 March 2015 19:03
Search period end: 03 March 2015 19:03
Location: Lake Runnemede Observatory, 43.4843°N, 72.3851°W

Satellite Date Start Highest point End Downlink Frequencies (MHz)
Time Altitude Azimuth
AIST 1 02 Mar 19:04:41 19:07:59 20° 272° (W) 19:11:09
PCSat 02 Mar 19:12:48 19:16:06 17° 106° (ESE) 19:19:39 145.827
PRISM 02 Mar 19:14:38 19:18:25 32° 291° (WNW) 19:22:09 437.425
VERMONT LUNAR 02 Mar 19:14:42 19:18:07 51° 177° (S) 19:21:31 437.305
PHONESAT 2.4 02 Mar 19:17:40 19:21:10 45° 170° (S) 19:24:39 2401.200-2431.200
BRITE-PL 02 Mar 19:19:32 19:25:09 72° 75° (ENE) 19:30:34 437.365/2234.400
GOMX 1 02 Mar 19:25:14 19:30:29 56° 74° (ENE) 19:35:31 467.674
SEEDS 02 Mar 19:27:18 19:31:12 40° 72° (ENE) 19:35:09 437.485
CANX-2 02 Mar 19:30:09 19:34:16 56° 74° (ENE) 19:38:26 2200.000
FUNcube-1 02 Mar 19:37:47 19:37:53 10° 62° (ENE) 19:38:13 145.935
ZACube-1 02 Mar 19:38:19 19:39:05 11° 62° (ENE) 19:40:05 437.345
UKube-1 02 Mar 19:45:17 19:47:05 13° 62° (ENE) 19:49:04 .
CUTE 1.7 + AOD 2 02 Mar 19:48:40 19:52:53 83° 77° (ENE) 19:57:07 437.475
AIST 2 02 Mar 19:50:17 19:52:38 14° 325° (NW) 19:54:52 435.215
UWE-3 02 Mar 19:54:48 19:57:53 19° 67° (ENE) 20:01:03 435.000/436.395/437.385
DOVE 4 02 Mar 20:00:33 20:05:43 84° 74° (ENE) 20:10:39 437.250
CUBESAT XI-V 02 Mar 20:05:42 20:08:05 14° 298° (WNW) 20:10:16 437.345
DELFI C3 02 Mar 20:06:14 20:09:43 29° 70° (ENE) 20:13:16 145.870
STRAND 1 02 Mar 20:08:17 20:12:24 24° 296° (WNW) 20:16:24 437.568
CINEMA 3 02 Mar 20:09:30 20:14:11 57° 74° (ENE) 20:18:42 145.822/145.860
Oscar 11 02 Mar 20:24:43 20:28:57 61° 74° (ENE) 20:33:14 145.826/435.025
CUBEBUG 2 02 Mar 20:30:45 20:35:08 53° 73° (ENE) 20:39:25 437.445
AAUSAT CUBESAT 2 02 Mar 20:32:57 20:36:59 51° 261° (W) 20:41:03 437.432
COMPASS 1 02 Mar 20:35:38 20:39:35 41° 262° (W) 20:43:32 437.405
HO-68 02 Mar 20:37:06 20:43:48 41° 263° (W) 20:50:28 435.675
DX 1 02 Mar 20:48:49 20:53:07 57° 73° (ENE) 20:57:27 434.975-435.025
VERMONT LUNAR 02 Mar 20:52:31 20:55:47 39° 194° (SSW) 20:59:04 437.305
AISAT 02 Mar 20:52:38 20:56:23 27° 68° (ENE) 21:00:13 437.250
PCSat 02 Mar 20:53:36 20:59:00 71° 302° (WNW) 21:04:28 145.827
PHONESAT 2.4 02 Mar 20:55:52 20:59:24 50° 187° (S) 21:02:56 2401.200-2431.200
CUBEBUG 1 02 Mar 20:58:00 21:00:10 14° 62° (ENE) 21:02:32 437.445
BRITE-PL 02 Mar 21:00:31 21:04:11 17° 272° (W) 21:07:33 437.365/2234.400
VELOX 1 02 Mar 21:01:54 21:05:53 32° 69° (ENE) 21:09:54 145.980
SEEDS 02 Mar 21:04:18 21:07:16 18° 269° (W) 21:10:05 437.485
GOMX 1 02 Mar 21:05:00 21:08:57 20° 269° (W) 21:12:37 467.674
CANX-2 02 Mar 21:08:34 21:10:39 13° 272° (W) 21:12:33 2200.000
FUNcube-1 02 Mar 21:09:18 21:13:41 88° 256° (WSW) 21:17:59 145.935
ZACube-1 02 Mar 21:10:32 21:14:56 84° 257° (WSW) 21:19:14 437.345
50 SAT 02 Mar 21:11:38 21:15:16 35° 71° (ENE) 21:18:56 437.505
HUMSAT D 02 Mar 21:14:04 21:18:10 55° 74° (ENE) 21:22:15 437.325/437.525
GONETS M04 02 Mar 21:14:11 21:22:32 57° 91° (E) 21:31:00
ESTCUBE 1 02 Mar 21:17:52 21:21:26 24° 66° (ENE) 21:25:06 437.505/2401.250
UKube-1 02 Mar 21:18:22 21:22:44 73° 257° (WSW) 21:27:06 .
UNISAT 6 02 Mar 21:28:57 21:31:31 16° 90° (E) 21:34:16 437.425
UWE-3 02 Mar 21:29:57 21:34:12 43° 262° (W) 21:38:21 435.000/436.395/437.385
DELFI C3 02 Mar 21:41:41 21:44:58 23° 267° (W) 21:48:12 145.870
DOVE 4 02 Mar 21:42:05 21:44:07 12° 273° (W) 21:45:49 437.250
RS-15 02 Mar 21:45:42 21:54:26 31° 106° (ESE) 22:03:36 29.354- 29.394
CINEMA 3 02 Mar 21:48:48 21:51:46 16° 270° (W) 21:54:30 145.822/145.860
QB50P1 02 Mar 21:48:56 21:51:06 14° 89° (E) 21:53:26 145.935-145.965
QB50P2 02 Mar 21:52:30 21:55:00 16° 90° (E) 21:57:41 145.880/145.840
TIGRISAT 02 Mar 21:53:13 21:56:52 27° 95° (E) 22:00:37 435.000
BUGSAT 1 02 Mar 21:59:30 22:01:23 13° 89° (E) 22:03:29 437.445
Oscar 11 02 Mar 22:03:39 22:05:38 13° 272° (W) 22:07:24 145.826/435.025
ANTELSAT 02 Mar 22:06:34 22:10:37 39° 98° (E) 22:14:42 437.575/2403.000
DUCHIFAT 1 02 Mar 22:07:01 22:10:15 22° 93° (E) 22:13:34 145.980
CUBEBUG 2 02 Mar 22:09:26 22:12:12 15° 270° (W) 22:14:44 437.445
DANDE 02 Mar 22:23:46 22:26:55 15° 91° (E) 22:30:01 436.750
POLYITAN 1 02 Mar 22:26:48 22:30:44 36° 97° (E) 22:34:38 437.675
POPSAT HIP 1 02 Mar 22:27:18 22:31:13 36° 97° (E) 22:35:08 437.405
DX 1 02 Mar 22:27:22 22:29:49 14° 271° (W) 22:32:05 434.975-435.025
AISAT 02 Mar 22:28:53 22:32:55 31° 264° (W) 22:36:56 437.250
VERMONT LUNAR 02 Mar 22:31:14 22:33:11 14° 209° (SSW) 22:35:04 437.305
CUBEBUG 1 02 Mar 22:31:38 22:36:04 68° 259° (WSW) 22:40:32 437.445
PHONESAT 2.4 02 Mar 22:34:31 22:37:29 23° 203° (SSW) 22:40:25 2401.200-2431.200
VELOX 1 02 Mar 22:38:42 22:42:30 26° 266° (W) 22:46:14 145.980
PCSat 02 Mar 22:40:15 22:43:30 15° 325° (NW) 22:46:36 145.827
50 SAT 02 Mar 22:47:34 22:50:26 18° 268° (W) 22:53:11 437.505
NANOSAT C BR1 02 Mar 22:50:17 22:54:31 66° 101° (ESE) 22:58:41 145.865
SWISSCUBE 02 Mar 22:51:14 22:51:28 10° 58° (ENE) 22:51:58 437.505
CUSAT 1 02 Mar 22:51:17 22:56:27 29° 96° (E) 23:00:40 437.405
HUMSAT D 02 Mar 22:52:15 22:54:23 13° 271° (W) 22:56:17 437.325/437.525
ESTCUBE 1 02 Mar 22:53:57 22:58:09 37° 263° (W) 23:02:22 437.505/2401.250
BEESAT 02 Mar 22:58:43 23:00:02 11° 59° (ENE) 23:01:36 436.000
SPROUT 02 Mar 23:03:38 23:07:57 69° 75° (ENE) 23:12:17 437.525
UNISAT 6 02 Mar 23:04:30 23:08:39 48° 287° (WNW) 23:12:49 437.425
TISAT 1 02 Mar 23:07:20 23:11:35 70° 75° (ENE) 23:15:52 437.305
GONETS M04 02 Mar 23:12:08 23:19:54 34° 293° (WNW) 23:27:31
QB50P1 02 Mar 23:23:14 23:27:23 53° 287° (WNW) 23:31:29 145.935-145.965
ITUPSAT 1 02 Mar 23:23:54 23:27:12 19° 64° (ENE) 23:30:39 437.325
QB50P2 02 Mar 23:27:09 23:31:15 47° 288° (WNW) 23:35:18 145.880/145.840
TIGRISAT 02 Mar 23:29:58 23:33:38 27° 291° (WNW) 23:37:15 435.000
BUGSAT 1 02 Mar 23:33:14 23:37:19 54° 287° (WNW) 23:41:19 437.445
DUCHIFAT 1 02 Mar 23:42:23 23:46:13 34° 290° (WNW) 23:49:59 145.980
ANTELSAT 02 Mar 23:44:01 23:47:12 20° 294° (WNW) 23:50:19 437.575/2403.000
RS-15 02 Mar 23:54:58 00:05:53 76° 308° (NW) 00:17:01 29.354- 29.394
POLYITAN 1 03 Mar 00:03:14 00:06:28 21° 294° (WNW) 00:09:35 437.675
DANDE 03 Mar 00:03:18 00:10:11 82° 279° (W) 00:15:17 436.750
POPSAT HIP 1 03 Mar 00:03:41 00:06:56 21° 294° (WNW) 00:10:04 437.405
Oscar 19 03 Mar 00:09:48 00:12:35 15° 88° (E) 00:15:37 437.125/150
SWISSCUBE 03 Mar 00:23:50 00:28:35 77° 76° (ENE) 00:33:25 437.505
NANOSAT C BR1 03 Mar 00:27:56 00:29:54 13° 297° (WNW) 00:31:41 145.865
BEESAT 3 03 Mar 00:28:09 00:31:18 21° 41° (NE) 00:34:30 437.485
BEESAT 03 Mar 00:32:26 00:37:13 86° 72° (ENE) 00:42:01 436.000
CUSAT 1 03 Mar 00:33:39 00:39:17 36° 284° (WNW) 00:43:37 437.405
KKS-1 03 Mar 00:42:35 00:46:01 22° 66° (ENE) 00:49:32 437.445
SPROUT 03 Mar 00:43:04 00:44:37 11° 273° (W) 00:45:55 437.525
TISAT 1 03 Mar 00:46:37 00:47:58 11° 273° (W) 00:49:04 437.305
STARS 03 Mar 00:49:14 00:52:05 18° 64° (ENE) 00:55:04 437.465
AIST 2 03 Mar 00:52:28 00:54:59 15° 36° (NE) 00:57:35 435.215
BEESAT 2 03 Mar 00:53:35 00:57:14 29° 46° (NE) 01:00:53 435.950
SO-50 03 Mar 00:57:47 01:02:02 39° 117° (ESE) 01:06:29 436.795
ITUPSAT 1 03 Mar 01:00:05 01:04:45 52° 260° (W) 01:09:28 437.325
YUBILEINY 03 Mar 01:14:46 01:20:59 21° 59° (ENE) 01:27:32 435.215
Gurwin Techsat 1B 03 Mar 01:20:28 01:24:01 18° 90° (E) 01:27:45 435.225
ITAMSAT 1 03 Mar 01:46:16 01:51:12 40° 98° (E) 01:56:06 435.822/435.867
Oscar 19 03 Mar 01:47:26 01:52:33 69° 287° (WNW) 01:57:38 437.125/150
DANDE 03 Mar 01:51:38 01:53:55 12° 294° (WNW) 01:55:40 436.750
SWISSCUBE 03 Mar 02:05:10 02:07:09 12° 273° (W) 02:08:51 437.505
BEESAT 3 03 Mar 02:05:40 02:09:42 50° 241° (WSW) 02:13:39 437.485
RS-15 03 Mar 02:11:02 02:20:29 31° 337° (NNW) 02:30:03 29.354- 29.394
BEESAT 03 Mar 02:14:46 02:15:49 10° 274° (W) 02:16:35 436.000
KKS-1 03 Mar 02:18:16 02:22:28 38° 263° (W) 02:26:40 437.445
STARS 03 Mar 02:23:54 02:28:13 50° 260° (W) 02:32:33 437.465
AIST 2 03 Mar 02:29:56 02:34:14 86° 237° (WSW) 02:38:27 435.215
BEESAT 2 03 Mar 02:31:42 02:35:27 32° 244° (WSW) 02:39:04 435.950
HORYU 2 03 Mar 02:35:26 02:38:56 23° 93° (E) 02:42:32 437.375
SO-50 03 Mar 02:38:34 02:42:42 30° 316° (NW) 02:46:57 436.795
M-CUBED/EXP-1 PRIME 03 Mar 02:58:51 03:02:06 60° 69° (ENE) 03:05:32 437.505
Gurwin Techsat 1B 03 Mar 02:59:14 03:04:29 60° 288° (WNW) 03:09:43 435.225
AUBIESAT-1 03 Mar 03:00:36 03:03:50 55° 69° (ENE) 03:07:15 437.475
YUBILEINY 03 Mar 03:10:21 03:19:15 89° 262° (W) 03:28:06 435.215
JAS-2 03 Mar 03:16:57 03:23:16 30° 91° (E) 03:30:00 435.910
AO-7 03 Mar 03:25:41 03:33:22 41° 98° (E) 03:41:08 29.400- 29.500
ITAMSAT 1 03 Mar 03:26:08 03:30:33 28° 295° (WNW) 03:34:51 435.822/435.867
MOZHAYETS 4 03 Mar 03:31:03 03:35:32 61° 74° (ENE) 03:40:05
PCSat 03 Mar 03:57:41 04:01:52 22° 42° (NE) 04:06:08 145.827
CUBESAT XI-V 03 Mar 03:57:52 03:58:44 11° 60° (ENE) 03:59:50 437.345
STRAND 1 03 Mar 04:10:51 04:12:07 11° 57° (ENE) 04:13:40 437.568
HORYU 2 03 Mar 04:11:39 04:15:44 36° 290° (WNW) 04:19:46 437.375
RS-15 03 Mar 04:28:40 04:37:30 26° 11° (N) 04:46:42 29.354- 29.394
PRISM 03 Mar 04:31:26 04:34:33 21° 66° (ENE) 04:37:47 437.425
JAS-2 03 Mar 05:01:24 05:08:41 63° 289° (WNW) 05:16:22 435.910
YUBILEINY 03 Mar 05:09:09 05:14:58 19° 282° (WNW) 05:20:20 435.215
MOZHAYETS 4 03 Mar 05:10:45 05:13:16 14° 272° (W) 05:15:36
Cubesat XI-IV 03 Mar 05:16:04 05:20:16 23° 92° (E) 05:24:33 437.490
AO-7 03 Mar 05:18:27 05:26:21 49° 297° (WNW) 05:34:07 29.400- 29.500
CUTE-I 03 Mar 05:24:44 05:29:14 27° 94° (E) 05:33:48 437.470
CUBESAT XI-V 03 Mar 05:30:47 05:35:29 83° 76° (ENE) 05:40:13 437.345
PCSat 03 Mar 05:40:27 05:45:52 70° 243° (WSW) 05:51:15 145.827
STRAND 1 03 Mar 05:45:24 05:50:32 75° 73° (ENE) 05:55:43 437.568
AIST 1 03 Mar 05:57:59 06:01:10 21° 88° (E) 06:04:31
PRISM 03 Mar 06:06:04 06:09:53 35° 263° (W) 06:13:43 437.425
RS-15 03 Mar 06:42:25 06:53:22 52° 42° (NE) 07:04:53 29.354- 29.394
JAS-2 03 Mar 06:48:50 06:52:36 14° 306° (NW) 06:56:07 435.910
Cubesat XI-IV 03 Mar 06:55:29 07:00:40 48° 290° (WNW) 07:05:47 437.490
CUTE-I 03 Mar 07:04:27 07:09:29 41° 292° (WNW) 07:14:27 437.470
CUBESAT XI-V 03 Mar 07:12:33 07:13:40 11° 275° (W) 07:14:29 437.345
AO-7 03 Mar 07:14:09 07:17:17 12° 319° (NW) 07:20:00 29.400- 29.500
GONETS M04 03 Mar 07:23:03 07:30:24 30° 65° (ENE) 07:37:57
BRITE-PL 03 Mar 07:25:12 07:28:14 18° 89° (E) 07:31:16 437.365/2234.400
STRAND 1 03 Mar 07:27:41 07:30:25 14° 273° (W) 07:32:53 437.568
GOMX 1 03 Mar 07:28:39 07:30:15 12° 86° (E) 07:32:04 467.674
CUTE 1.7 + AOD 2 03 Mar 07:34:31 07:36:31 13° 88° (E) 07:38:42 437.475
AIST 1 03 Mar 07:34:38 07:38:39 35° 285° (WNW) 07:42:42
ISS 03 Mar 07:35:57 07:37:44 14° 133° (SE) 07:39:35 145.825
O/OREOS (USA 219) 03 Mar 07:38:55 07:39:55 11° 98° (E) 07:41:12 437.305
SO-50 03 Mar 07:48:50 07:50:55 13° 29° (NNE) 07:53:10 436.795
DOVE 4 03 Mar 08:00:08 08:03:00 18° 90° (E) 08:05:58 437.250
HO-68 03 Mar 08:02:58 08:09:31 38° 96° (E) 08:16:08 435.675
CINEMA 3 03 Mar 08:06:18 08:06:57 10° 87° (E) 08:07:50 145.822/145.860
Oscar 11 03 Mar 08:14:05 08:14:25 10° 86° (E) 08:15:02 145.826/435.025
AAUSAT CUBESAT 2 03 Mar 08:15:30 08:18:47 22° 93° (E) 08:22:09 437.432
COMPASS 1 03 Mar 08:18:15 08:21:51 27° 94° (E) 08:25:30 437.405
UNISAT 6 03 Mar 08:29:34 08:32:26 18° 65° (ENE) 08:35:25 437.425
QB50P1 03 Mar 08:43:33 08:45:42 14° 63° (ENE) 08:48:02 145.935-145.965
SEEDS 03 Mar 08:46:00 08:50:14 69° 101° (E) 08:54:28 437.485
QB50P2 03 Mar 08:47:14 08:49:42 16° 64° (ENE) 08:52:20 145.880/145.840
CANX-2 03 Mar 08:50:05 08:54:22 83° 284° (WNW) 08:58:37 2200.000
BUGSAT 1 03 Mar 08:51:28 08:53:17 13° 63° (ENE) 08:55:18 437.445
TIGRISAT 03 Mar 08:53:22 08:57:09 29° 69° (ENE) 09:00:55 435.000
RS-15 03 Mar 08:55:02 09:06:07 56° 246° (WSW) 09:17:33 29.354- 29.394
FUNcube-1 03 Mar 08:58:01 09:00:22 15° 90° (E) 09:02:54 145.935
ZACube-1 03 Mar 08:59:21 09:01:52 16° 90° (E) 09:04:32 437.345
DUCHIFAT 1 03 Mar 09:01:06 09:04:13 21° 66° (ENE) 09:07:27 145.980
BRITE-PL 03 Mar 09:02:47 09:07:09 43° 289° (WNW) 09:11:13 437.365/2234.400
GOMX 1 03 Mar 09:04:40 09:09:02 60° 286° (WNW) 09:13:10 467.674
UKube-1 03 Mar 09:06:02 09:08:51 17° 91° (E) 09:11:48 .
ANTELSAT 03 Mar 09:06:53 09:11:00 41° 71° (ENE) 09:15:06 437.575/2403.000
CUTE 1.7 + AOD 2 03 Mar 09:08:42 09:12:53 57° 286° (WNW) 09:17:02 437.475
ISS 03 Mar 09:10:35 09:13:49 75° 330° (NNW) 09:17:03 145.825
O/OREOS (USA 219) 03 Mar 09:14:11 09:18:45 78° 294° (WNW) 09:23:22 437.305
UWE-3 03 Mar 09:18:52 09:22:35 31° 96° (E) 09:26:20 435.000/436.395/437.385
GONETS M04 03 Mar 09:19:21 09:27:59 65° 267° (W) 09:36:36
DELFI C3 03 Mar 09:19:36 09:23:31 42° 98° (E) 09:27:25 145.870
POLYITAN 1 03 Mar 09:21:09 09:25:00 33° 70° (ENE) 09:28:53 437.675
POPSAT HIP 1 03 Mar 09:21:24 09:25:13 33° 70° (ENE) 09:29:06 437.405
SO-50 03 Mar 09:27:49 09:32:40 52° 50° (NE) 09:37:29 436.795
DOVE 4 03 Mar 09:37:03 09:41:05 39° 289° (WNW) 09:44:56 437.250
CINEMA 3 03 Mar 09:40:36 09:44:47 66° 285° (WNW) 09:48:52 145.822/145.860
NANOSAT C BR1 03 Mar 09:43:56 09:48:08 57° 74° (ENE) 09:52:21 145.865
Oscar 11 03 Mar 09:46:54 09:51:14 76° 285° (WNW) 09:55:33 145.826/435.025
HO-68 03 Mar 09:50:36 09:57:24 46° 295° (WNW) 10:04:06 435.675
AAUSAT CUBESAT 2 03 Mar 09:50:45 09:54:31 32° 290° (WNW) 09:58:14 437.432
COMPASS 1 03 Mar 09:53:58 09:57:32 27° 291° (WNW) 10:01:03 437.405
CUBEBUG 2 03 Mar 09:57:19 10:01:29 78° 285° (WNW) 10:05:39 437.445
UNISAT 6 03 Mar 10:04:42 10:08:58 47° 261° (W) 10:13:09 437.425
DX 1 03 Mar 10:12:08 10:16:33 88° 292° (WNW) 10:20:54 434.975-435.025
QB50P1 03 Mar 10:16:55 10:21:10 61° 259° (W) 10:25:25 145.935-145.965
AISAT 03 Mar 10:18:14 10:22:31 44° 99° (E) 10:26:45 437.250
CUBEBUG 1 03 Mar 10:20:20 10:23:36 21° 92° (E) 10:26:58 437.445
QB50P2 03 Mar 10:21:02 10:25:14 54° 260° (W) 10:29:28 145.880/145.840
50 SAT 03 Mar 10:23:35 10:27:26 49° 99° (E) 10:31:17 437.505
SEEDS 03 Mar 10:23:44 10:25:34 12° 297° (WNW) 10:27:15 437.485
BUGSAT 1 03 Mar 10:24:02 10:28:18 69° 258° (WSW) 10:32:35 437.445
VELOX 1 03 Mar 10:27:24 10:31:46 54° 100° (E) 10:36:08 145.980
TIGRISAT 03 Mar 10:30:10 10:33:56 26° 265° (W) 10:37:35 435.000
HUMSAT D 03 Mar 10:32:48 10:36:56 88° 277° (W) 10:41:03 437.325/437.525
FUNcube-1 03 Mar 10:33:04 10:37:04 46° 287° (WNW) 10:41:03 145.935
ZACube-1 03 Mar 10:34:34 10:38:32 44° 288° (WNW) 10:42:30 437.345
DUCHIFAT 1 03 Mar 10:35:50 10:39:51 38° 262° (W) 10:43:52 145.980
UKube-1 03 Mar 10:41:07 10:45:18 45° 289° (WNW) 10:49:26 .
ANTELSAT 03 Mar 10:44:51 10:48:02 19° 268° (W) 10:51:03 437.575/2403.000
ESTCUBE 1 03 Mar 10:45:17 10:49:36 42° 98° (E) 10:53:56 437.505/2401.250
DANDE 03 Mar 10:45:26 10:48:08 75° 80° (E) 10:50:44 436.750
ISS 03 Mar 10:48:00 10:50:38 22° 348° (NNW) 10:53:16 145.825
SPROUT 03 Mar 10:51:51 10:52:54 11° 87° (E) 10:54:14 437.525
DELFI C3 03 Mar 10:55:40 10:58:26 17° 294° (WNW) 11:01:06 145.870
UWE-3 03 Mar 10:55:43 10:59:02 23° 292° (WNW) 11:02:15 435.000/436.395/437.385
POLYITAN 1 03 Mar 10:57:34 11:01:02 23° 267° (W) 11:04:24 437.675
O/OREOS (USA 219) 03 Mar 10:57:36 10:59:05 11° 315° (NW) 11:00:22 437.305
POPSAT HIP 1 03 Mar 10:57:43 11:01:12 23° 267° (W) 11:04:36 437.405
SO-50 03 Mar 11:09:04 11:12:56 23° 247° (WSW) 11:16:41 436.795
CUSAT 1 03 Mar 11:11:48 11:13:59 23° 265° (W) 11:16:11 437.405
RS-15 03 Mar 11:14:00 11:16:27 10° 264° (W) 11:17:35 29.354- 29.394
GONETS M04 03 Mar 11:20:15 11:23:16 12° 286° (WNW) 11:25:35
NANOSAT C BR1 03 Mar 11:22:15 11:24:27 13° 271° (W) 11:26:26 145.865
Oscar 19 03 Mar 11:27:22 11:31:32 26° 65° (ENE) 11:35:46 437.125/150
ITAMSAT 1 03 Mar 11:31:05 11:31:48 10° 56° (NE) 11:32:48 435.822/435.867
DX 1 03 Mar 11:51:40 11:52:10 10° 300° (WNW) 11:52:26 434.975-435.025
AISAT 03 Mar 11:55:37 11:58:50 19° 295° (WNW) 12:01:57 437.250
CUBEBUG 1 03 Mar 11:56:03 12:00:10 38° 290° (WNW) 12:04:13 437.445
50 SAT 03 Mar 11:59:52 12:02:06 14° 295° (WNW) 12:04:11 437.505
VELOX 1 03 Mar 12:05:07 12:07:59 17° 297° (WNW) 12:10:41 145.980
ESTCUBE 1 03 Mar 12:22:45 12:26:15 21° 294° (WNW) 12:29:38 437.505/2401.250
SWISSCUBE 03 Mar 12:24:09 12:27:23 18° 91° (E) 12:30:46 437.505
SPROUT 03 Mar 12:25:18 12:29:35 69° 285° (WNW) 12:33:50 437.525
ISS 03 Mar 12:25:19 12:27:49 20° 8° (N) 12:30:20 145.825
TISAT 1 03 Mar 12:26:44 12:30:59 74° 285° (WNW) 12:35:10 437.305
BEESAT 03 Mar 12:32:27 12:35:57 20° 92° (E) 12:39:33 436.000
AO-7 03 Mar 12:38:06 12:42:26 16° 46° (NE) 12:47:08 29.400- 29.500
Gurwin Techsat 1B 03 Mar 12:42:23 12:47:03 33° 67° (ENE) 12:51:48 435.225
ITUPSAT 1 03 Mar 12:59:38 13:04:04 36° 97° (E) 13:08:32 437.325
ITAMSAT 1 03 Mar 13:05:16 13:10:27 69° 74° (ENE) 13:15:42 435.822/435.867
Oscar 19 03 Mar 13:05:50 13:10:42 42° 262° (W) 13:15:34 437.125/150
JAS-2 03 Mar 13:34:45 13:36:44 12° 52° (NE) 13:39:06 435.910
HORYU 2 03 Mar 13:35:10 13:38:46 25° 67° (ENE) 13:42:27 437.375
SWISSCUBE 03 Mar 14:00:55 14:05:37 52° 288° (WNW) 14:10:16 437.505
ISS 03 Mar 14:01:35 14:04:46 53° 27° (NNE) 14:07:57 145.825
KKS-1 03 Mar 14:08:09 14:12:16 36° 97° (E) 14:16:21 437.445
BEESAT 03 Mar 14:09:28 14:14:05 46° 289° (WNW) 14:18:39 436.000
STARS 03 Mar 14:12:59 14:16:40 26° 94° (E) 14:20:23 437.465
YUBILEINY 03 Mar 14:19:00 14:24:58 22° 80° (E) 14:31:20 435.215
Gurwin Techsat 1B 03 Mar 14:22:11 14:27:01 34° 264° (W) 14:31:49 435.225
AO-7 03 Mar 14:25:36 14:33:45 62° 66° (ENE) 14:41:57 29.400- 29.500
ITUPSAT 1 03 Mar 14:37:47 14:41:51 27° 294° (WNW) 14:45:49 437.325
ITAMSAT 1 03 Mar 14:47:24 14:50:34 15° 272° (W) 14:53:31 435.822/435.867
HORYU 2 03 Mar 15:11:19 15:15:20 32° 264° (W) 15:19:19 437.375
JAS-2 03 Mar 15:15:07 15:20:36 70° 73° (ENE) 15:26:50 435.910
MOZHAYETS 4 03 Mar 15:26:43 15:28:55 14° 88° (E) 15:31:22
ISS 03 Mar 15:38:27 15:40:59 21° 224° (SW) 15:43:29 145.825
KKS-1 03 Mar 15:45:12 15:48:44 23° 294° (WNW) 15:52:12 437.445
STARS 03 Mar 15:49:18 15:53:10 30° 292° (WNW) 15:56:58 437.465
BEESAT 3 03 Mar 16:01:04 16:04:12 22° 114° (ESE) 16:07:27 437.485
YUBILEINY 03 Mar 16:12:06 16:20:51 81° 279° (W) 16:29:43 435.215
M-CUBED/EXP-1 PRIME 03 Mar 16:13:04 16:17:11 45° 105° (ESE) 16:21:35 437.505
AUBIESAT-1 03 Mar 16:14:19 16:18:23 42° 104° (ESE) 16:22:44 437.475
AO-7 03 Mar 16:19:48 16:27:06 32° 266° (W) 16:34:13 29.400- 29.500
BEESAT 2 03 Mar 16:26:55 16:30:38 35° 117° (ESE) 16:34:28 435.950
AIST 2 03 Mar 16:30:48 16:33:14 15° 111° (ESE) 16:35:51 435.215
Cubesat XI-IV 03 Mar 16:39:00 16:44:01 43° 69° (ENE) 16:49:07 437.490
CUTE-I 03 Mar 16:47:33 16:52:42 50° 70° (ENE) 16:57:56 437.470
VERMONT LUNAR 03 Mar 16:52:18 16:55:06 23° 157° (SSE) 16:57:57 437.305
MOZHAYETS 4 03 Mar 17:02:04 17:06:41 65° 286° (WNW) 17:11:16
JAS-2 03 Mar 17:02:59 17:06:40 17° 275° (W) 17:10:18 435.910
PHONESAT 2.4 03 Mar 17:03:13 17:05:34 17° 152° (SSE) 17:07:59 2401.200-2431.200
CUBESAT XI-V 03 Mar 17:27:22 17:30:44 20° 90° (E) 17:34:13 437.345
BEESAT 3 03 Mar 17:38:12 17:42:05 39° 311° (NW) 17:46:01 437.485
AIST 1 03 Mar 17:40:12 17:44:36 63° 79° (E) 17:48:57
O/OREOS (USA 219) 03 Mar 17:44:13 17:48:10 28° 56° (NE) 17:52:08 437.305
PRISM 03 Mar 17:47:33 17:51:13 28° 96° (E) 17:54:55 437.425
M-CUBED/EXP-1 PRIME 03 Mar 17:48:42 17:51:54 21° 298° (WNW) 17:55:09 437.505
AUBIESAT-1 03 Mar 17:49:45 17:53:04 22° 298° (WNW) 17:56:28 437.475
STRAND 1 03 Mar 17:55:31 17:59:31 23° 92° (E) 18:03:38 437.568
BEESAT 2 03 Mar 18:05:18 18:08:53 27° 315° (NW) 18:12:29 435.950
AIST 2 03 Mar 18:07:13 18:11:26 59° 307° (NW) 18:15:42 435.215
YUBILEINY 03 Mar 18:13:33 18:19:27 18° 304° (WNW) 18:24:56 435.215
Cubesat XI-IV 03 Mar 18:19:49 18:24:20 26° 267° (W) 18:28:46 437.490
CUTE-I 03 Mar 18:28:54 18:33:07 22° 268° (W) 18:37:13 437.470
VERMONT LUNAR 03 Mar 18:29:15 18:32:39 48° 174° (S) 18:36:02 437.305
CUTE 1.7 + AOD 2 03 Mar 18:29:43 18:31:19 12° 63° (ENE) 18:33:06 437.475
HO-68 03 Mar 18:33:10 18:39:17 33° 61° (ENE) 18:45:33 435.675
BRITE-PL 03 Mar 18:35:46 18:40:33 31° 68° (ENE) 18:45:14 437.365/2234.400
GOMX 1 03 Mar 18:36:32 18:40:23 21° 66° (ENE) 18:44:13 467.674
PHONESAT 2.4 03 Mar 18:40:05 18:43:33 42° 168° (SSE) 18:47:01 2401.200-2431.200
PCSat 03 Mar 18:43:45 18:45:36 12° 104° (ESE) 18:47:47 145.827
